Theta_e
341 344 344 342 341 342 343 344 344 342 342 340 343 344 345 346 345 342 345 345 345 343 343 342 342 341 340 342 342 341 341 336 331 337 338 341 339 335 346 344 342 338 339
344 343 345 345 344 341 342 344 344 343 342 341 339 338 338 342 345 341 340 347 344 343 342 341 343 348 342 340 340 341 339 339 335 331 336 339 339 339 342 341 342 342 340
345 342 341 342 341 342 342 343 345 343 341 339 337 337 337 338 341 344 344 344 345 345 343 340 342 340 339 340 340 341 340 343 339 335 334 338 340 339 338 340 340 339 340
341 339 339 337 338 342 342 344 344 344 342 338 337 338 338 337 340 344 347 346 343 345 347 346 343 339 336 340 340 340 340 340 338 336 335 335 336 339 339 338 336 337 334
338 336 335 338 340 340 341 341 344 344 342 340 335 335 340 341 343 345 346 346 345 344 345 345 346 344 342 341 342 340 340 336 337 336 332 332 333 335 333 336 335 333 332
335 334 337 337 336 337 337 336 336 340 343 343 339 336 336 342 339 338 345 345 345 345 343 344 347 345 343 339 338 339 342 338 335 334 332 332 330 333 334 333 333 330 328
334 334 335 336 337 339 339 336 335 334 334 338 342 344 343 343 335 335 339 346 346 346 345 343 345 349 343 344 336 335 336 336 339 338 334 333 331 335 334 331 335 333 331
333 333 335 336 338 338 337 335 335 335 335 335 335 340 343 347 332 331 336 342 344 345 346 346 345 343 342 341 337 336 334 331 331 337 338 337 335 333 334 332 331 329 328
334 334 334 335 333 333 333 332 333 334 336 338 340 341 343 345 330 329 332 340 343 343 344 345 345 344 334 331 338 334 327 324 322 324 324 323 324 325 329 332 328 329 327
334 335 335 334 332 330 329 331 335 340 338 339 342 344 339 345 332 327 330 342 342 344 343 344 334 342 328 326 340 333 325 322 320 318 317 319 321 324 327 330 332 327 319
336 336 336 335 333 332 331 333 337 339 342 340 341 343 343 342 344 323 323 339 343 343 342 341 339 325 321 320 328 335 331 323 322 318 317 319 321 322 323 325 330 326 319
334 333 332 333 335 338 336 335 337 337 336 337 338 340 341 342 326 324 318 321 332 340 341 341 338 320 315 315 324 325 320 323 322 320 319 318 318 319 319 320 320 319 320
329 328 329 332 333 332 332 332 332 329 332 332 333 333 333 333 333 321 318 318 320 325 341 335 323 316 315 319 321 318 321 326 323 320 318 315 319 319 319 317 320 319 318
326 325 326 327 333 329 324 323 326 327 328 329 331 332 332 332 331 331 328 328 321 322 325 323 320 320 321 325 321 322 328 326 323 320 317 317 320 318 319 320 316 315 313
326 325 325 326 330 316 314 314 317 316 315 319 324 326 328 330 327 315 320 325 326 320 320 321 321 324 323 324 325 326 325 324 320 319 318 317 317 318 316 318 318 315 309
324 324 322 325 328 319 312 309 304 303 301 298 298 301 314 309 302 302 302 302 304 309 321 322 322 323 323 324 322 320 320 320 319 319 317 316 315 313 311 311 312 311 305
323 323 323 322 328 321 313 311 312 308 301 298 297 297 297 304 300 298 299 301 305 312 319 319 319 321 320 320 319 318 317 318 319 317 315 314 312 309 309 308 310 305 302
323 317 325 323 325 323 321 317 317 315 314 311 304 298 297 297 297 297 300 309 317 316 318 317 316 317 317 317 316 315 314 313 312 311 310 308 305 304 305 304 305 303 301
322 326 327 327 323 319 316 316 314 312 310 310 311 306 301 298 300 302 307 318 317 316 317 316 316 315 315 315 314 313 311 310 309 307 306 304 301 302 301 302 303 302 301
328 324 324 323 318 317 316 314 313 313 314 314 314 315 316 314 315 315 317 317 316 316 316 315 315 314 313 312 311 310 307 306 304 304 303 302 301 301 300 302 303 302 301
326 326 324 320 318 317 316 316 316 315 315 316 315 311 306 316 315 316 315 316 316 316 316 315 314 314 314 313 311 309 306 304 304 304 304 303 303 302 302 302 302 303 302
327 325 322 320 318 318 317 317 317 317 317 315 313 307 303 312 313 314 314 315 315 314 314 314 314 314 313 311 309 305 305 306 306 305 304 303 303 302 302 302 300 301 301
321 327 323 320 319 316 317 318 317 316 316 314 310 309 310 310 313 314 315 315 314 314 312 312 312 310 309 307 306 306 306 305 304 304 304 304 303 302 302 301 300 298 297
320 325 326 321 319 318 318 317 316 310 313 312 311 310 309 310 311 311 312 313 312 312 311 311 310 310 308 307 307 309 308 307 306 305 305 303 303 299 300 300 299 298 296
323 324 325 322 319 319 318 318 316 314 314 315 313 311 310 311 312 314 313 313 314 312 312 312 312 311 310 309 309 310 305 298 306 301 306 304 302 301 301 300 298 297 297
320 321 321 322 320 320 320 319 318 317 317 316 315 314 314 313 313 313 312 314 314 313 313 313 314 315 314 313 313 306 293 290 299 295 306 304 302 301 301 300 299 297 298
Wind_Speed
6 6 7 7 7 5 5 6 6 5 6 5 5 6 6 6 5 3 4 4 4 3 3 4 5 2 3 3 1 1 1 2 2 2 1 1 1 3 3 3 3 3 2
6 6 7 6 6 7 8 7 6 7 5 7 6 6 6 7 6 6 6 5 6 6 6 4 7 3 4 3 2 3 2 1 3 3 1 2 2 2 2 3 3 3 3
6 6 4 3 3 5 7 7 6 7 6 6 5 7 7 7 6 6 7 7 6 6 6 5 6 4 5 3 4 4 2 2 2 3 3 1 1 2 2 2 2 4 4
5 6 7 7 5 5 6 6 6 7 7 7 7 7 8 7 6 6 6 7 7 7 7 6 6 6 7 4 5 5 3 2 2 2 2 3 2 1 2 2 3 2 3
8 7 7 4 5 5 5 6 7 7 7 7 6 6 6 6 6 7 7 6 6 7 6 7 7 8 10 7 4 6 5 3 3 3 2 1 2 2 4 3 3 3 2
6 8 5 4 4 6 6 4 5 6 6 6 6 8 8 8 11 12 9 7 7 7 7 7 7 7 7 11 13 10 9 7 5 3 3 4 4 4 4 4 5 4 3
6 5 5 5 8 6 5 5 5 5 4 5 5 5 9 11 13 14 16 8 8 8 8 7 6 6 9 6 3 4 4 7 6 5 5 6 4 6 5 4 5 5 3
6 5 5 6 8 6 5 6 6 5 6 6 6 6 8 11 13 15 16 10 8 9 9 9 8 7 6 8 6 5 5 4 3 4 5 5 4 5 5 4 5 5 5
6 6 6 6 6 6 8 6 6 6 8 6 6 8 9 10 13 15 11 7 8 10 9 9 9 8 10 11 9 8 5 3 1 5 7 6 4 4 4 4 3 6 3
7 8 6 5 6 6 7 6 5 5 6 4 6 7 9 10 10 13 11 7 8 8 7 10 14 13 13 18 12 10 8 7 7 5 4 6 6 6 3 2 5 5 5
5 4 5 5 6 7 7 5 6 8 7 6 7 4 5 6 8 10 11 7 9 7 7 7 7 14 14 20 18 12 12 10 8 6 5 4 4 5 5 5 3 6 5
6 6 5 5 4 4 5 3 3 4 5 4 2 3 3 5 3 3 2 13 10 7 7 7 7 14 14 16 12 7 12 11 7 6 6 4 5 5 6 8 9 7 3
4 4 4 4 4 2 1 2 1 0 2 3 3 2 4 4 3 4 6 6 8 7 8 7 8 11 10 10 12 19 19 9 8 7 7 5 4 6 9 9 6 6 6
3 4 3 3 4 2 2 2 1 2 2 3 3 3 3 3 3 3 4 4 5 5 4 3 6 9 8 6 7 13 9 10 11 8 8 8 5 3 0 3 6 2 5
4 4 4 3 4 3 1 0 1 1 1 2 3 3 3 3 2 6 5 3 3 2 3 2 4 4 5 5 6 6 5 7 9 10 9 6 3 5 2 2 2 2 4
5 4 3 3 3 3 3 2 2 2 4 5 9 6 5 7 9 7 3 4 6 8 2 2 1 1 4 6 6 7 7 9 10 9 7 5 5 3 2 2 3 3 6
5 4 4 3 3 3 3 4 3 3 5 3 4 5 12 11 5 4 8 8 6 4 3 4 5 6 5 4 9 10 13 10 10 8 6 4 2 1 3 3 4 6 4
4 6 3 4 4 3 3 2 1 2 2 2 4 5 4 3 5 4 7 7 5 5 5 7 8 8 8 8 7 10 7 8 3 3 5 4 4 4 3 5 6 6 4
4 3 3 2 2 2 2 1 0 0 0 1 1 3 4 7 8 7 7 4 5 6 6 8 8 8 9 9 7 7 7 5 3 6 5 5 4 5 3 4 5 6 6
4 7 4 3 3 3 2 2 2 2 1 2 2 2 1 3 4 4 4 5 5 6 7 8 7 7 8 8 7 6 5 5 4 5 5 5 4 4 5 5 5 5 3
3 3 5 3 3 3 3 4 3 3 3 2 2 2 4 4 5 5 6 6 7 7 7 8 8 7 7 7 6 5 5 4 4 5 5 5 4 4 4 4 5 5 5
3 3 4 4 4 4 4 4 4 4 4 3 2 2 7 4 4 5 5 5 5 4 4 4 5 4 4 4 4 5 5 5 4 5 5 4 5 5 4 5 5 3 4
5 5 6 5 5 6 5 5 5 5 4 3 3 2 2 3 4 4 5 4 5 4 3 3 4 3 2 3 4 5 6 6 6 5 6 5 5 4 4 5 5 4 3
6 6 6 7 7 7 6 5 5 5 5 4 4 3 3 3 4 5 4 4 3 2 3 3 4 6 5 5 4 3 3 4 5 5 7 6 6 6 4 3 5 5 4
4 4 5 8 8 8 7 6 6 4 4 4 4 3 3 4 4 3 4 4 4 3 4 4 3 5 8 8 7 7 6 8 6 7 5 5 6 7 4 4 5 4 4
2 3 3 3 8 8 8 6 5 4 3 4 4 4 5 5 4 4 3 4 4 3 4 4 5 8 8 7 8 10 8 9 8 9 6 6 6 5 5 6 8 4 6
Wind_Direction
185 189 199 196 195 212 225 208 209 226 204 209 212 211 212 212 204 219 251 230 237 274 260 246 239 227 242 257 281 332 86 119 161 318 186 297 227 195 140 119 145 124 140
192 197 215 206 194 203 214 224 204 212 220 208 215 212 208 208 194 193 222 237 226 240 253 260 265 234 238 234 214 223 177 170 137 220 271 239 233 69 116 133 140 141 125
176 163 162 197 206 230 224 216 199 207 200 213 224 219 217 221 210 202 199 215 221 228 235 231 249 250 255 220 220 230 218 176 163 159 236 219 208 152 128 140 150 109 106
153 180 179 187 183 216 227 223 212 209 211 201 204 215 220 220 211 218 210 210 221 218 223 221 230 225 230 231 226 217 224 215 180 174 212 209 195 179 116 133 148 122 125
181 207 232 213 183 217 204 200 214 206 215 219 214 221 225 216 217 212 214 216 218 231 231 229 229 225 225 215 201 222 190 202 209 194 213 213 219 185 181 165 167 130 112
175 205 188 191 194 210 208 199 218 193 203 199 217 232 220 220 217 215 210 210 218 223 232 239 242 243 244 235 224 219 183 180 199 187 208 206 217 206 168 164 147 163 192
192 202 197 208 234 219 218 225 224 230 184 216 213 223 244 238 221 217 216 221 216 217 221 228 239 234 222 220 195 193 186 205 198 181 208 207 209 199 161 159 177 186 179
212 226 213 227 234 234 215 210 239 229 230 234 231 217 229 253 231 226 228 219 217 222 223 221 222 230 216 187 176 187 193 207 211 213 213 222 215 173 174 177 159 107 67
212 221 220 215 231 231 235 226 221 221 233 212 227 239 225 242 233 233 228 221 226 236 232 224 219 220 211 201 181 186 189 215 24 147 115 110 115 189 168 121 135 144 111
215 225 228 233 229 241 243 236 224 205 228 216 251 238 237 240 238 231 221 231 229 237 235 237 224 218 189 184 193 181 183 194 162 130 103 67 65 48 100 245 155 142 128
207 213 219 226 233 231 251 242 256 251 233 216 243 262 249 224 248 228 238 223 226 228 228 236 227 214 205 192 196 183 195 156 157 128 115 100 75 65 49 39 52 140 111
175 188 217 246 245 250 234 243 250 275 256 259 235 268 281 293 277 340 337 232 260 229 230 229 228 204 206 196 193 168 147 144 145 138 128 112 104 87 74 73 57 45 7
172 213 230 240 268 323 260 180 202 6 305 283 253 284 293 282 285 278 293 289 270 253 261 245 210 204 208 199 180 152 150 157 159 147 136 125 105 123 119 117 126 114 66
216 247 262 243 202 144 60 23 349 333 324 315 306 260 252 261 294 310 305 307 280 270 277 183 186 176 176 159 148 154 161 165 156 148 137 135 137 98 207 107 106 113 87
229 256 274 257 205 159 47 80 275 305 227 289 288 308 298 265 267 309 267 270 271 239 115 122 166 172 153 160 156 154 134 137 131 128 133 124 118 120 101 93 92 42 93
272 275 265 243 204 172 177 194 76 306 300 260 268 238 274 249 304 285 213 142 139 142 136 164 156 185 171 152 128 101 99 110 111 103 96 107 127 150 130 93 89 109 114
248 276 286 254 187 187 200 212 233 205 194 113 19 280 234 244 298 203 131 103 124 117 102 85 92 96 83 68 118 115 114 105 119 120 112 116 211 142 120 127 116 122 98
244 247 257 279 257 198 186 190 240 275 294 320 10 354 7 143 134 138 113 94 75 69 101 105 99 94 93 95 91 97 87 86 95 91 98 143 146 124 134 118 121 126 124
253 258 259 258 202 136 113 98 150 101 47 328 300 47 64 93 98 87 74 88 114 110 106 104 105 103 100 97 90 89 96 108 163 128 132 137 130 118 107 117 113 123 111
245 255 260 168 148 137 136 143 135 146 135 92 73 76 73 63 74 69 66 86 95 98 104 101 96 100 100 100 102 106 104 120 153 117 120 121 128 134 137 132 132 132 126
243 233 198 157 160 153 153 158 150 141 129 98 75 37 98 113 110 104 103 105 106 108 114 118 124 127 130 128 119 122 135 141 130 118 123 128 128 119 126 115 122 135 135
251 211 174 177 157 164 165 156 156 148 133 121 114 50 100 92 100 104 106 105 93 82 77 101 105 111 115 123 137 140 150 134 121 111 116 127 129 125 134 127 124 137 140
253 213 181 180 174 163 164 169 165 145 137 134 135 110 102 102 91 93 98 96 104 107 99 108 124 136 152 163 163 167 141 145 157 150 137 131 134 138 132 135 151 128 154
237 231 185 180 174 171 167 162 162 165 164 162 158 147 137 128 115 112 107 114 153 182 163 162 164 157 157 179 172 158 135 138 149 157 149 146 149 150 139 135 158 164 146
226 206 194 181 173 174 160 163 168 172 178 178 162 158 164 153 153 180 174 191 204 170 165 164 187 186 177 171 169 177 185 172 159 157 151 144 150 162 154 144 146 135 131
242 155 175 167 174 168 165 165 161 149 205 179 187 186 187 187 195 222 220 195 165 170 163 164 185 188 182 187 194 201 190 196 188 184 158 148 152 148 148 158 157 155 146